Regional Weather Roundup
Issued by NWS

Home | Current Version | Previous Version | Text Only | Print | Product List | Glossary Off
Versions: 1 2 3 4 5 6 7 8 9 10 11 12 13 14 15 16 17 18 19 20 21 22 23 24 25 26 27 28 29 30 31 32 33 34 35 36 37 38 39 40 41 42 43 44 45 46 47 48 49 50

000
ASUS43 KBIS 230302
RWRND

NORTH DAKOTA REGIONAL WEATHER ROUNDUP
NATIONAL WEATHER SERVICE BISMARCK ND
1000 PM CDT FRI SEP 22 2017

NOTE: "FAIR" INDICATES FEW OR NO CLOUDS BELOW 12,000 FEET WITH NO
SIGNIFICANT WEATHER AND/OR OBSTRUCTIONS TO VISIBILITY.


NDZ001>003-009>011-017-230400-
NORTHWEST NORTH DAKOTA

CITY           SKY/WX    TMP DP  RH WIND       PRES   REMARKS
WILLISTON      PTCLDY    45  41  86 N10       30.05R
MINOT          CLOUDY    49  45  86 NW13      29.98F
MINOT AFB      CLOUDY    48  45  90 N13       29.98S
$$

NDZ018>021-031>035-040>046-230400-
SOUTHWEST NORTH DAKOTA

CITY           SKY/WX    TMP DP  RH WIND       PRES   REMARKS
BISMARCK       CLOUDY    50  45  83 N16G26    29.95R
GARRISON         N/A     47  43  86 N10G21    29.97R
HETTINGER ARPT CLOUDY    45  39  79 NW15      30.02R
$$

NDZ004>008-012>016-024-026-027-054-230400-
NORTHEAST NORTH DAKOTA

CITY           SKY/WX    TMP DP  RH WIND       PRES   REMARKS
GRAND FORKS    CLOUDY    55  53  93 N23G35    29.71R
GRND FRKS AFB  CLOUDY    53  52  94 N22G31    29.73R
DEVILS LAKE    CLOUDY    51  47  86 N18       29.87R
$$

NDZ022-023-025-028>030-036>039-047>053-230400-
SOUTHEAST NORTH DAKOTA

CITY           SKY/WX    TMP DP  RH WIND       PRES   REMARKS
FARGO          PTCLDY    64  56  75 NW18      29.70R
JAMESTOWN      CLOUDY    52  51  97 NW20G26   29.83R FOG
$$





USA.gov is the U.S. government's official web portal to all federal, state and local government web resources and services.